Wind_Speed
20 23 25 26 28 31 33 34 36 38 39 39 40 41 41 41 41 41 40 39 38 37 36 36 35 34 33 32 30 28 27 27 27 27 27 26 26 25 25 25 25 25 25 24
19 22 24 26 29 31 33 35 37 39 40 40 41 42 43 42 43 42 42 41 40 40 39 39 39 38 37 35 33 32 30 30 30 30 31 31 29 29 29 29 28 28 28 27
19 21 24 27 29 32 35 36 38 39 40 40 41 41 42 41 41 41 41 40 39 39 39 39 40 40 40 39 38 36 35 34 34 34 36 36 35 33 33 33 32 31 31 29
20 23 26 29 32 34 37 38 39 40 40 40 40 40 41 39 39 39 38 37 36 35 35 36 37 39 39 40 40 40 39 38 37 37 38 40 41 39 37 36 34 33 32 30
23 26 29 32 35 37 40 41 41 41 42 41 40 39 38 38 37 37 36 35 35 34 33 33 34 35 38 40 41 42 42 41 40 40 40 43 44 43 41 38 36 34 33 31
27 29 32 35 38 39 40 41 42 42 42 42 39 37 38 38 35 35 35 35 34 34 33 33 33 33 35 38 40 42 43 43 42 42 42 45 46 45 43 40 38 37 34 31
29 30 31 33 35 36 36 36 36 35 34 34 34 35 38 37 35 34 33 34 33 33 33 33 33 33 35 37 39 41 43 43 43 43 44 46 48 47 44 44 40 37 34 31
27 29 30 31 31 32 32 29 27 26 24 23 24 26 29 29 29 29 29 29 29 30 30 31 32 33 35 36 37 39 41 42 42 43 43 44 45 45 43 40 37 33 31 28
27 28 29 29 30 28 25 21 19 18 17 16 17 19 21 19 21 22 23 23 24 25 26 28 30 31 32 33 34 35 36 38 39 40 41 42 42 41 40 34 29 29 26 21
27 27 28 27 26 24 21 16 12 10 8 7 10 11 13 15 16 15 15 16 17 19 20 22 24 25 26 27 29 30 31 32 34 35 36 38 37 34 31 25 21 19 16 15
26 26 26 25 23 21 18 15 12 8 3 1 3 4 6 7 8 9 9 10 11 12 14 16 17 18 19 20 22 24 25 26 28 27 26 25 23 19 16 14 12 11 11 14
26 25 25 24 22 21 19 16 14 11 9 7 4 4 1 1 3 5 5 5 5 5 6 7 9 9 11 12 13 15 15 15 15 13 12 10 8 8 7 6 7 9 12 14
25 25 24 23 22 21 19 18 16 15 14 12 11 9 5 2 1 1 2 3 3 4 3 3 5 5 4 5 6 7 6 6 6 5 4 4 3 3 4 5 8 10 13 14
25 25 24 22 21 21 21 19 19 17 15 14 13 11 10 7 6 6 7 8 9 9 8 8 8 8 8 8 8 7 6 6 5 3 1 1 3 4 6 8 10 12 13 15
24 25 24 23 22 21 22 20 20 19 19 18 16 14 13 12 10 11 11 10 10 10 11 11 10 9 9 9 9 7 5 4 3 2 3 4 4 5 7 8 10 12 13 15
23 24 24 23 22 21 20 19 19 18 19 19 18 17 15 15 15 16 15 13 13 13 13 12 11 9 9 8 7 6 5 4 4 4 4 5 6 8 9 10 12 14 15 17
22 23 23 22 21 20 19 18 17 17 17 18 19 20 19 19 18 18 17 17 16 15 15 14 13 12 11 9 8 7 7 6 5 6 7 8 9 10 11 13 14 16 18 19
22 22 21 21 21 20 19 18 17 17 18 18 19 20 20 20 20 19 18 18 17 17 16 15 14 13 11 10 9 8 8 7 7 7 8 10 11 12 14 15 16 18 19 20
20 20 20 20 20 20 19 17 16 16 17 17 18 18 19 19 19 19 19 18 17 16 15 14 13 12 11 10 10 9 9 9 9 10 11 12 12 13 15 16 17 19 19 20
18 18 19 19 19 19 18 17 16 16 16 17 17 18 18 18 19 18 18 17 16 15 15 13 12 11 11 10 10 9 9 10 10 11 11 12 13 14 15 16 17 18 19 20
17 18 18 18 18 17 17 17 16 15 15 15 16 16 16 17 17 16 16 16 15 14 14 13 13 12 12 11 11 10 10 10 11 11 12 13 13 14 15 16 16 16 16 16
17 17 17 17 16 16 16 16 15 14 13 13 14 14 15 15 15 15 15 15 15 14 14 14 13 13 13 12 12 12 12 12 12 13 13 14 14 14 14 14 14 13 12 12
18 17 16 16 15 15 15 14 13 12 11 12 12 12 13 13 13 13 14 14 14 15 15 15 15 15 14 14 14 14 14 14 14 15 15 15 15 15 15 15 15 13 12 11
18 17 16 14 14 14 14 13 12 11 10 10 11 11 11 11 11 12 13 14 14 15 16 16 16 17 17 16 16 16 16 16 17 17 18 18 18 18 18 17 17 15 14 12
17 17 16 15 14 13 14 13 12 11 9 9 9 9 9 10 10 11 11 13 14 15 16 16 17 17 17 17 17 17 17 17 18 18 19 20 20 20 20 19 19 18 16 15
15 14 15 15 14 13 13 12 11 11 10 8 8 8 8 8 8 9 10 11 13 14 15 16 16 16 17 17 17 17 17 18 18 19 20 21 21 21 21 21 20 20 19 18
Wind_Direction
269 270 270 270 269 269 269 268 268 267 267 266 265 265 265 265 265 263 262 261 260 260 259 260 262 264 266 267 269 271 273 276 279 281 280 278 276 272 267 260 254 252 251 251
276 275 277 276 274 273 272 270 269 269 268 267 266 266 266 265 265 264 263 262 261 260 259 258 259 260 261 263 263 266 268 270 274 276 277 276 274 271 267 262 256 252 250 249
286 286 284 282 280 278 275 274 272 271 271 270 269 268 267 266 265 265 264 263 262 261 260 259 258 257 257 259 261 263 263 265 268 270 272 272 273 270 266 263 258 253 251 248
295 293 290 288 286 284 281 279 277 275 274 273 272 272 270 268 267 267 266 265 264 264 262 261 260 258 256 256 256 257 259 260 263 266 268 268 268 265 263 261 259 255 251 247
305 301 298 295 293 290 286 283 279 277 275 274 273 272 270 269 268 268 267 267 267 267 266 264 262 260 257 255 254 253 255 256 259 261 262 263 264 264 261 259 257 254 250 246
312 309 306 302 299 296 292 286 282 279 275 272 270 269 268 267 268 268 268 268 269 269 268 267 265 262 258 255 253 251 252 254 256 258 260 261 262 260 258 256 257 255 251 247
322 319 316 312 307 303 299 294 289 285 279 274 267 263 264 266 265 266 268 269 270 270 269 267 265 263 259 256 253 250 250 252 254 256 258 258 259 260 259 256 256 255 252 251
332 328 326 322 318 313 307 301 294 288 279 270 264 260 261 261 260 260 262 264 266 267 268 268 265 262 259 256 253 251 250 251 253 255 259 260 261 261 264 260 255 253 249 250
340 335 332 330 329 327 322 313 304 294 282 267 258 259 254 252 251 255 258 260 261 264 265 266 265 262 259 257 255 254 253 253 254 256 259 261 264 263 263 261 256 250 245 245
349 347 344 343 345 347 345 340 335 322 294 266 256 257 252 251 253 254 255 257 259 262 263 263 261 260 258 258 257 256 255 255 256 258 257 261 264 262 258 252 244 237 233 237
0 359 359 1 3 6 6 5 7 11 2 254 260 268 267 250 254 247 248 256 259 260 262 263 260 258 255 256 256 256 259 259 257 256 258 259 257 248 235 230 230 229 233 243
9 10 10 11 15 20 22 26 36 46 54 62 65 39 0 278 250 237 239 248 246 252 251 249 247 246 246 245 245 247 249 246 241 238 238 235 227 218 219 230 243 250 252 254
16 17 17 20 24 28 31 37 46 54 58 62 71 66 69 71 108 168 145 133 145 152 157 169 176 186 197 196 201 203 185 177 185 186 190 197 209 229 256 267 271 269 264 265
23 24 26 28 31 36 41 47 54 57 59 62 69 70 66 67 82 93 110 119 120 118 115 119 125 122 116 114 122 124 116 113 122 129 141 276 296 288 287 281 279 277 274 274
26 29 32 35 39 43 47 53 56 56 60 66 66 66 65 69 79 85 91 97 96 101 104 103 101 103 102 102 104 97 94 79 61 34 359 340 324 302 289 287 284 281 281 281
30 32 35 38 40 43 48 51 52 54 58 61 59 60 62 68 72 72 75 80 82 86 88 87 87 89 91 87 78 66 56 46 29 10 347 329 318 305 295 292 289 286 285 284
33 34 36 39 40 43 47 48 52 55 59 60 61 63 64 66 69 71 71 72 73 76 73 73 72 70 70 72 66 53 44 32 12 350 332 322 315 308 301 297 293 290 287 284
35 36 38 40 42 45 49 54 57 61 66 66 64 66 65 65 67 68 68 67 67 68 68 68 67 65 61 57 49 39 29 17 1 345 334 325 317 310 305 300 295 291 289 287
34 36 38 39 42 47 50 55 58 62 67 67 65 66 66 65 65 63 63 63 64 64 63 62 60 57 52 46 37 27 15 4 353 343 334 326 320 314 309 303 299 296 293 290
36 35 36 38 40 45 49 55 61 65 69 68 66 65 64 61 60 59 59 59 59 58 56 54 52 48 43 35 27 18 8 360 352 345 339 332 326 320 315 310 305 300 296 293
38 36 35 37 40 47 50 54 60 65 67 67 65 63 60 57 57 57 56 55 54 53 52 51 48 44 40 35 29 21 14 8 3 357 352 347 341 334 328 322 316 309 303 300
36 35 36 37 41 44 45 51 56 60 64 65 63 60 58 56 55 55 53 51 49 50 50 48 47 45 42 39 35 32 29 25 20 15 9 4 358 354 349 344 338 331 324 319
33 33 35 36 38 38 41 45 49 55 61 62 61 58 57 55 54 52 49 47 47 48 47 48 47 46 44 44 44 44 42 38 34 28 23 19 16 14 12 9 5 360 354 347
30 31 32 32 32 32 35 38 43 46 53 55 55 54 52 50 47 46 46 45 45 45 47 48 48 47 47 48 49 49 47 45 42 39 36 32 30 29 27 25 23 20 17 14
28 32 32 32 33 34 34 35 37 37 41 45 45 45 45 43 41 41 42 43 44 45 47 48 49 49 50 51 51 51 51 48 47 44 42 39 37 36 36 35 33 32 31 29
21 25 27 29 30 31 29 29 31 31 32 33 35 36 35 34 34 35 38 40 42 45 47 47 48 49 50 52 52 52 51 49 48 45 43 41 39 39 38 37 37 37 37 36
Height
5876 5876 5874 5873 5872 5871 5870 5869 5867 5866 5864 5865 5864 5862 5862 5862 5862 5863 5864 5866 5867 5868 5869 5870 5870 5871 5871 5872 5872 5872 5872 5872 5871 5870 5869 5868 5868 5868 5869 5869 5870 5870 5871 5871
5873 5871 5869 5867 5865 5864 5862 5860 5858 5856 5855 5854 5853 5852 5851 5851 5851 5852 5853 5855 5857 5858 5860 5861 5862 5863 5864 5865 5865 5866 5866 5866 5865 5864 5862 5862 5861 5861 5862 5862 5863 5863 5864 5865
5869 5867 5864 5861 5858 5856 5853 5851 5848 5847 5845 5843 5843 5842 5841 5840 5840 5841 5842 5844 5846 5848 5849 5851 5852 5854 5855 5857 5857 5858 5858 5858 5858 5857 5856 5855 5854 5854 5854 5854 5855 5856 5857 5858
5864 5861 5858 5854 5850 5847 5843 5840 5838 5836 5834 5833 5833 5832 5830 5831 5831 5831 5832 5834 5836 5838 5839 5841 5842 5844 5845 5847 5848 5849 5850 5850 5850 5850 5849 5847 5846 5845 5845 5846 5847 5849 5850 5851
5859 5855 5851 5846 5842 5837 5833 5829 5826 5824 5822 5821 5821 5821 5821 5821 5821 5822 5822 5824 5826 5828 5830 5831 5833 5834 5835 5837 5838 5839 5840 5841 5842 5842 5842 5840 5838 5836 5837 5838 5839 5841 5843 5844
5853 5848 5843 5837 5830 5825 5820 5816 5813 5810 5809 5809 5810 5810 5809 5811 5812 5812 5813 5815 5817 5818 5820 5822 5823 5824 5825 5826 5828 5829 5830 5832 5833 5834 5834 5834 5831 5829 5829 5830 5831 5833 5835 5837
5845 5840 5834 5828 5821 5814 5808 5804 5800 5798 5796 5797 5797 5798 5797 5800 5801 5802 5804 5805 5807 5809 5810 5812 5813 5815 5815 5816 5818 5819 5821 5822 5824 5825 5826 5826 5825 5823 5822 5823 5824 5825 5827 5829
5840 5834 5827 5820 5813 5805 5798 5794 5791 5788 5787 5786 5786 5787 5788 5789 5791 5793 5794 5796 5798 5800 5801 5802 5803 5805 5806 5807 5808 5810 5812 5814 5815 5817 5817 5817 5816 5816 5815 5815 5816 5818 5820 5822
5836 5829 5821 5813 5805 5798 5791 5785 5782 5780 5778 5778 5779 5779 5780 5782 5783 5785 5786 5788 5790 5791 5793 5793 5794 5796 5797 5798 5800 5802 5804 5806 5807 5808 5809 5808 5808 5808 5808 5809 5810 5811 5813 5815
5832 5825 5817 5809 5801 5793 5787 5781 5778 5775 5774 5774 5775 5775 5776 5777 5778 5779 5780 5782 5783 5784 5785 5786 5786 5788 5789 5791 5793 5795 5796 5798 5799 5800 5801 5801 5801 5801 5802 5803 5804 5805 5808 5811
5830 5823 5815 5807 5799 5792 5787 5781 5777 5774 5772 5773 5774 5776 5774 5774 5775 5776 5777 5778 5778 5779 5780 5780 5780 5782 5783 5785 5787 5788 5790 5791 5793 5793 5795 5795 5795 5795 5797 5799 5800 5802 5805 5807
5828 5822 5814 5808 5800 5794 5788 5783 5779 5777 5775 5773 5773 5777 5773 5774 5773 5774 5775 5775 5776 5776 5776 5776 5777 5778 5779 5781 5782 5783 5784 5785 5787 5788 5790 5791 5792 5793 5794 5796 5798 5800 5801 5803
5828 5822 5816 5809 5805 5798 5792 5787 5783 5780 5779 5777 5776 5779 5775 5774 5774 5774 5774 5774 5775 5774 5774 5774 5775 5776 5777 5778 5779 5780 5781 5783 5784 5786 5787 5788 5790 5791 5792 5793 5795 5796 5797 5798
5829 5823 5818 5813 5807 5801 5796 5792 5788 5786 5783 5781 5780 5779 5778 5777 5776 5775 5775 5775 5775 5775 5775 5775 5775 5776 5777 5777 5779 5780 5781 5783 5784 5785 5786 5787 5788 5789 5790 5791 5792 5792 5792 5792
5831 5825 5819 5815 5810 5805 5801 5797 5794 5792 5789 5787 5785 5783 5782 5780 5779 5778 5777 5777 5777 5777 5777 5777 5777 5778 5778 5779 5780 5782 5783 5783 5784 5785 5785 5786 5786 5787 5788 5788 5788 5788 5788 5787
5833 5828 5823 5819 5814 5810 5806 5803 5800 5797 5795 5792 5791 5789 5786 5784 5783 5782 5781 5781 5781 5780 5780 5781 5781 5781 5781 5782 5782 5783 5784 5784 5785 5785 5785 5785 5786 5786 5785 5785 5784 5784 5783 5782
5836 5832 5827 5823 5819 5815 5811 5808 5805 5803 5800 5798 5797 5795 5792 5790 5789 5788 5787 5786 5785 5785 5785 5785 5785 5785 5785 5785 5785 5786 5785 5785 5785 5785 5785 5785 5784 5783 5782 5781 5780 5779 5778 5777
5839 5835 5831 5827 5824 5819 5819 5813 5811 5808 5806 5804 5802 5800 5798 5797 5795 5794 5793 5792 5791 5790 5790 5789 5789 5788 5788 5788 5788 5787 5787 5786 5786 5785 5784 5783 5782 5780 5779 5777 5776 5774 5773 5771
5841 5838 5835 5831 5827 5824 5821 5818 5815 5813 5811 5809 5808 5806 5804 5803 5801 5800 5798 5797 5796 5795 5794 5793 5792 5792 5791 5790 5789 5788 5787 5786 5785 5784 5783 5781 5779 5777 5775 5773 5771 5769 5767 5765
5844 5841 5838 5834 5831 5828 5826 5822 5819 5819 5816 5814 5812 5811 5809 5808 5806 5805 5803 5802 5801 5799 5798 5797 5796 5795 5794 5792 5791 5790 5788 5787 5785 5783 5781 5779 5777 5775 5772 5770 5767 5764 5762 5760
5847 5844 5841 5838 5835 5832 5829 5826 5824 5824 5822 5819 5817 5816 5814 5812 5811 5810 5808 5806 5805 5803 5802 5800 5799 5797 5795 5794 5792 5790 5789 5787 5785 5783 5780 5778 5775 5772 5769 5766 5763 5760 5758 5755
5850 5847 5844 5841 5838 5837 5832 5830 5828 5827 5824 5822 5821 5820 5818 5817 5815 5814 5812 5810 5809 5807 5805 5803 5801 5799 5797 5795 5793 5791 5789 5787 5785 5782 5780 5777 5774 5771 5767 5764 5760 5757 5754 5751
5852 5850 5847 5845 5843 5839 5835 5833 5831 5829 5827 5826 5824 5823 5822 5820 5819 5817 5815 5814 5812 5810 5808 5805 5803 5801 5799 5797 5795 5793 5791 5788 5786 5783 5780 5777 5774 5770 5766 5763 5758 5755 5751 5749
5855 5851 5849 5846 5843 5841 5838 5835 5833 5831 5830 5828 5827 5826 5824 5823 5822 5820 5818 5816 5814 5812 5810 5808 5806 5804 5801 5799 5797 5795 5793 5790 5788 5785 5782 5779 5775 5771 5767 5763 5759 5755 5752 5749
5857 5854 5851 5848 5845 5843 5840 5837 5835 5833 5831 5830 5829 5827 5826 5825 5823 5822 5820 5819 5817 5815 5813 5811 5808 5806 5804 5802 5800 5798 5795 5793 5791 5788 5785 5781 5777 5773 5770 5765 5761 5757 5753 5750
5859 5856 5853 5851 5848 5845 5843 5840 5837 5835 5833 5831 5830 5829 5827 5826 5825 5824 5822 5821 5819 5817 5815 5813 5811 5809 5807 5805 5803 5801 5799 5796 5794 5791 5788 5784 5781 5777 5773 5769 5764 5760 5756 5753